This is the latest recevied weather packets stored in our database for station/object KD8UYA. If no packets are shown the sender has not sent any weather packets the latest 10 day(s).
| Time | Temp. | Humidity | Pressure | Rain* | Wind** | Luminosity | Snow |
|---|---|---|---|---|---|---|---|
| 1778239819 | 7.78° C | 88% | 1010.6 hPa | 0.25 mm | - | - | - |
| 1778238919 | 7.78° C | 87% | 1010.4 hPa | 0.76 mm | - | - | - |
| 1778238018 | 7.78° C | 88% | 1010.5 hPa | 0.76 mm | - | - | - |
| 1778237117 | 7.78° C | 87% | 1010.3 hPa | 0.51 mm | - | - | - |
| 1778236219 | 7.78° C | 86% | 1010.4 hPa | 0.51 mm | - | - | - |
| 1778235312 | 8.33° C | 82% | 1010.4 hPa | 0 mm | - | - | - |
| 1778234420 | 7.78° C | 83% | 1010.2 hPa | 0 mm | - | - | - |
| 1778233510 | 7.22° C | 85% | 1010.2 hPa | 0 mm | - | - | - |
| 1778232610 | 7.22° C | 85% | 1010.4 hPa | 0 mm | - | - | - |
| 1778231707 | 7.22° C | 84% | 1010.6 hPa | 0 mm | - | - | - |
| 1778230806 | 7.22° C | 84% | 1010.6 hPa | 0 mm | - | - | - |
| 1778229904 | 7.22° C | 84% | 1010.7 hPa | 0 mm | - | - | - |
| 1778229003 | 7.22° C | 85% | 1010.7 hPa | 0 mm | - | - | - |
| 1778228104 | 7.22° C | 84% | 1010.6 hPa | 0 mm | - | - | - |
| 1778227272 | 7.78° C | 84% | 1010.7 hPa | 0 mm | - | - | - |
| 1778226365 | 7.78° C | 83% | 1010.9 hPa | 0 mm | - | - | - |
| 1778225458 | 7.78° C | 82% | 1010.8 hPa | 0 mm | - | - | - |
| 1778224552 | 8.33° C | 80% | 1010.9 hPa | 0 mm | - | - | - |
| 1778223652 | 8.89° C | 76% | 1011 hPa | 0 mm | - | - | - |
| 1778222755 | 8.89° C | 74% | 1010.9 hPa | 0 mm | - | - | - |
| 1778221848 | 8.33° C | 74% | 1011 hPa | 0 mm | - | - | - |
| 1778220945 | 8.33° C | 75% | 1011.1 hPa | 0 mm | - | - | - |
| 1778220042 | 8.33° C | 76% | 1011.1 hPa | 0 mm | - | - | - |
| 1778219146 | 8.33° C | 76% | 1011.1 hPa | 0 mm | - | - | - |
| 1778218241 | 8.33° C | 75% | 1011.4 hPa | 0 mm | - | - | - |
* Rain latest hour (hover to see other rain measurements)
** Current wind speed in m/s (hover to see current wind gust speed)